Theta_e
298 297 297 296 296 297 299 300 302 303 305 307 307 308 309 309 309 310 310 311 311 309 309 310 310 307 307 308 307 305 304 303 303 302 302 304 306 308 309 308 307 307 306 306 305 303 303 300 300 300 301 301 303 303 303 302 301 300 296 295 292 290 290 291 291 291 289 287 288 288 287 288 287 286 285 286 285 286 286 286 286 286 286 285 286
295 294 294 294 295 296 298 300 301 302 304 306 306 307 308 309 309 311 309 310 311 311 309 310 312 311 310 307 302 301 301 303 302 301 300 301 303 305 307 307 306 305 304 304 303 303 300 299 299 299 299 300 301 302 301 299 298 295 294 292 293 291 289 291 292 293 289 287 285 286 287 289 290 287 286 285 285 285 285 285 286 285 285 285 285
295 294 294 294 295 296 297 299 301 304 305 306 306 307 308 308 310 310 309 309 309 309 311 311 306 305 305 302 301 295 296 298 298 298 299 300 300 301 303 304 304 303 302 301 301 300 300 299 298 298 298 297 298 299 299 297 296 295 295 293 291 292 291 292 291 292 290 289 289 286 284 285 287 286 288 286 284 285 285 285 285 284 284 285 285
295 295 294 293 294 295 297 298 300 303 304 305 306 306 307 308 309 310 308 309 309 307 307 302 299 299 299 298 296 296 295 296 297 297 296 296 296 297 299 301 302 301 300 299 298 298 298 298 296 296 296 298 299 298 297 296 296 296 296 295 293 289 290 290 290 289 290 289 288 290 286 288 284 284 284 285 285 284 284 284 284 284 284 284 285
296 295 293 293 293 294 296 298 300 302 303 304 305 306 307 307 309 309 308 308 308 304 299 298 296 296 294 295 296 295 295 295 297 296 296 295 294 296 296 298 299 298 298 297 296 296 296 295 295 295 295 297 298 297 297 296 296 296 296 294 293 292 290 290 289 289 292 289 293 288 287 287 288 286 285 283 286 284 283 284 284 284 284 284 284
296 296 295 293 294 294 296 297 299 301 303 304 306 306 307 307 308 308 307 307 306 301 298 298 298 296 297 299 299 299 296 295 298 296 294 295 297 293 293 295 296 296 295 295 295 294 293 293 294 294 294 295 297 298 297 297 296 295 295 296 295 295 293 290 289 287 287 287 287 290 295 294 288 285 286 282 284 284 284 283 282 283 283 283 283
294 294 293 293 293 294 295 296 298 300 302 305 305 306 307 307 308 308 307 306 302 300 298 299 300 302 303 305 306 304 303 300 300 298 298 295 292 292 291 292 294 294 292 292 292 292 292 291 292 293 294 295 295 296 295 295 295 296 296 296 296 295 295 293 290 288 286 286 286 286 287 287 291 285 285 282 280 282 284 283 283 283 282 283 283
295 294 294 294 294 294 294 296 298 300 302 304 305 306 306 306 307 307 306 304 300 300 300 301 302 302 302 303 303 304 305 303 298 295 292 291 291 291 291 290 291 291 291 290 290 290 290 289 290 291 293 293 293 294 295 294 294 293 294 295 295 294 296 294 290 287 290 285 285 285 284 285 287 287 289 287 284 280 280 282 283 282 282 282 283
294 295 294 293 293 294 295 296 298 300 302 303 304 305 306 306 306 306 305 303 300 298 300 301 301 301 302 302 302 303 301 298 295 292 290 290 290 289 290 289 289 289 289 289 289 288 288 288 289 290 291 291 292 293 292 291 292 291 290 290 292 293 295 294 290 288 289 285 283 283 285 285 285 285 284 287 284 282 280 280 281 282 283 283 282
292 293 294 293 293 294 295 296 297 299 302 304 304 305 306 306 305 305 304 302 300 300 300 299 300 300 301 303 303 298 292 291 291 290 289 289 288 288 288 288 288 287 287 288 288 288 287 287 288 290 290 290 290 290 290 290 290 291 291 292 292 292 290 291 291 289 288 286 287 286 286 284 285 285 285 284 283 286 282 281 282 281 281 282 283
289 290 290 291 291 293 294 295 297 299 301 303 304 304 305 305 305 304 303 301 299 298 300 300 301 301 303 302 301 296 295 293 290 288 288 288 288 287 288 288 287 287 286 286 287 287 286 287 288 289 289 289 288 288 288 289 289 289 289 289 290 289 288 289 288 287 286 285 285 286 286 286 286 285 284 285 285 281 281 281 282 282 282 281 282
288 288 289 290 291 291 293 295 296 299 301 302 303 304 304 305 304 303 302 301 300 299 299 299 300 299 301 300 298 296 294 292 294 292 288 290 288 287 287 286 286 286 285 285 285 285 286 286 286 287 287 287 287 288 288 288 287 287 287 287 287 287 287 287 286 285 285 286 285 285 286 286 285 287 286 286 286 284 284 281 281 281 280 282 283
288 288 289 289 291 291 292 294 296 298 300 302 302 303 304 304 304 303 302 300 299 298 298 298 298 299 299 299 298 295 294 295 294 293 291 293 289 288 286 286 285 285 284 284 284 285 285 285 285 286 286 286 287 286 286 286 286 286 286 286 286 286 286 286 285 286 285 285 285 284 284 284 284 283 284 284 284 283 284 281 281 280 280 281 282
288 288 288 290 290 291 292 294 296 297 300 301 302 302 303 303 303 303 302 300 299 297 297 297 297 298 298 298 296 293 293 294 294 293 291 292 290 289 290 287 285 286 285 285 285 285 285 286 286 286 286 286 285 286 285 285 286 285 285 285 285 285 285 286 286 286 285 285 284 283 283 283 282 282 283 284 283 283 281 281 280 279 279 280 281
287 287 289 290 290 291 292 294 295 297 299 301 302 302 303 302 302 301 301 298 298 298 297 297 296 297 297 297 295 293 293 293 293 293 292 291 290 290 291 290 288 287 286 285 285 285 285 285 285 285 285 285 285 285 285 285 285 285 285 285 284 284 285 285 284 284 284 283 283 283 282 282 282 282 283 284 283 284 283 281 281 278 278 279 278
288 288 289 289 290 290 291 293 295 296 298 300 301 302 302 302 302 301 301 298 297 297 297 297 297 296 296 295 294 293 293 293 292 291 291 291 290 290 291 290 289 287 285 285 285 285 285 284 284 284 284 284 284 284 284 284 284 284 284 284 283 283 284 284 283 283 282 282 282 282 282 281 281 281 282 282 282 282 283 281 282 281 280 278 278
289 289 289 289 289 290 291 292 294 296 298 299 301 301 301 301 301 300 300 298 297 297 296 296 296 295 294 294 293 292 292 291 290 290 290 290 289 290 290 289 288 286 285 285 284 284 284 284 284 283 284 284 284 283 283 283 284 284 283 283 283 283 283 283 282 282 282 282 281 282 282 281 280 281 281 281 281 281 282 282 282 283 283 280 278
290 289 288 288 289 290 291 292 294 295 297 298 300 301 301 301 300 300 299 297 296 296 296 295 294 294 293 293 292 292 291 291 290 289 289 288 288 288 287 286 286 285 284 285 284 283 283 283 283 283 283 283 283 283 283 283 284 283 283 283 282 282 281 281 281 281 281 281 281 280 281 281 280 281 281 280 281 281 281 282 282 281 282 281 279
288 288 287 287 288 289 290 291 292 294 296 298 299 299 300 300 299 300 299 298 296 296 295 295 295 293 293 292 292 291 291 290 289 289 288 287 287 286 286 286 285 284 284 284 283 283 283 283 283 282 282 282 282 282 283 283 283 282 282 281 281 281 281 281 280 280 280 280 279 279 280 280 279 280 280 280 280 281 281 281 281 282 281 282 280
289 288 288 288 288 289 290 291 291 293 294 296 297 298 298 298 297 297 298 296 295 294 294 293 293 293 292 292 291 291 290 289 288 287 286 286 286 286 285 284 284 283 284 283 283 283 283 282 282 282 282 282 282 281 282 281 282 281 281 280 280 280 280 280 280 280 279 280 279 279 279 279 278 279 279 279 280 280 280 280 280 281 280 279 281
288 288 288 288 288 288 289 290 291 291 293 294 296 297 297 297 296 296 295 294 293 293 293 293 292 291 290 290 289 289 288 288 287 287 286 286 286 285 285 285 284 283 283 283 282 282 282 282 282 282 281 281 281 281 281 281 281 280 280 280 280 280 280 280 279 279 279 279 279 278 277 277 278 278 278 279 279 279 279 280 279 280 279 279 279
288 288 287 287 287 287 288 288 289 289 290 292 294 296 296 296 296 295 295 293 293 292 292 292 290 290 289 289 289 289 288 287 286 285 285 285 284 284 284 284 283 283 282 282 282 282 282 281 281 281 281 281 281 280 280 280 280 280 280 279 279 280 280 279 279 278 278 278 278 277 277 277 277 277 277 278 278 278 278 278 278 278 279 278 279
288 287 287 287 287 287 287 288 289 289 290 291 292 294 296 296 295 294 294 293 293 292 291 290 289 289 288 288 288 287 287 286 285 284 284 283 283 283 283 282 283 282 282 282 282 282 281 281 281 281 280 280 280 279 279 280 280 280 279 279 279 279 279 279 278 278 277 277 277 277 276 276 276 276 276 277 277 277 277 277 277 278 278 278 278
286 285 285 286 286 286 287 287 288 288 289 290 292 293 294 295 295 294 293 292 291 291 290 289 288 288 288 287 287 286 285 285 284 284 283 283 283 283 283 282 282 282 281 281 281 281 281 281 280 280 280 280 279 279 279 280 280 280 279 279 279 279 279 279 278 277 277 276 277 276 276 276 276 276 276 276 276 276 276 277 277 277 277 277 277
286 286 286 285 285 286 287 287 288 288 289 289 290 291 293 294 294 294 294 292 291 290 289 288 287 287 286 286 286 285 284 284 284 284 283 283 283 282 282 282 281 281 281 281 281 281 280 280 280 280 280 279 279 279 279 279 279 279 279 279 278 278 279 279 278 277 277 277 276 277 276 276 276 276 276 275 276 275 275 276 276 276 276 276 275
286 286 285 286 286 286 286 287 288 288 289 289 290 291 292 293 293 294 293 292 291 290 289 288 287 286 286 285 285 284 284 283 283 283 283 282 282 282 281 281 281 281 280 280 280 280 280 280 280 280 280 280 279 279 279 279 278 279 279 278 278 278 278 278 277 277 277 277 277 277 276 276 276 276 276 276 275 275 275 275 275 275 275 275 275
287 286 285 285 285 286 286 287 287 288 288 289 289 290 291 292 292 292 292 291 290 289 289 288 287 287 285 285 284 284 284 283 283 283 282 282 281 281 281 280 281 281 280 280 280 280 280 280 280 280 279 279 279 278 278 278 278 278 278 278 278 277 277 277 276 277 277 277 277 276 276 276 276 277 277 276 275 274 274 274 275 274 274 274 274
285 285 285 286 287 287 286 286 286 287 288 288 289 290 290 291 291 291 291 290 289 288 288 288 287 286 286 285 284 284 283 283 283 283 282 282 281 281 281 281 281 281 281 280 280 280 280 280 280 280 279 279 279 278 278 278 278 277 277 278 278 277 276 276 276 277 277 276 276 276 276 276 276 277 277 277 276 275 275 274 275 274 274 274 274
285 286 286 286 287 287 287 286 286 287 287 287 288 289 289 290 291 290 289 290 289 288 288 287 287 286 286 285 285 284 283 283 282 282 281 281 281 281 281 280 281 281 281 281 281 281 280 279 279 279 279 279 278 278 278 278 277 277 277 277 277 277 276 276 276 275 276 276 276 276 276 276 276 277 278 278 277 277 275 274 274 274 274 274 273
288 288 288 287 287 287 287 286 286 286 287 287 288 288 289 289 290 290 289 289 288 288 288 287 287 287 286 285 284 284 283 282 282 281 281 281 281 281 280 280 280 280 280 280 280 280 280 279 279 278 278 278 278 278 279 281 280 278 277 277 277 277 277 276 276 275 275 275 275 275 276 277 277 278 278 279 279 279 278 277 276 274 273 273 272
289 289 289 288 287 287 286 286 286 286 287 287 288 288 288 289 289 289 289 288 288 288 287 287 286 287 286 285 284 283 282 282 282 282 281 281 281 281 280 280 280 280 280 280 280 279 279 279 279 278 278 278 278 278 282 283 282 281 278 277 277 277 276 276 276 275 275 275 275 276 275 277 278 278 278 279 280 281 281 280 279 277 276 274 271
293 293 291 289 288 287 287 287 287 287 287 287 287 288 288 288 289 288 288 287 287 287 287 287 286 286 285 284 284 283 282 282 282 282 281 281 281 281 280 280 280 280 280 280 279 279 279 279 279 279 278 278 278 281 283 284 284 283 281 278 277 277 277 276 276 276 276 276 276 275 275 275 276 277 277 278 279 281 281 281 281 281 279 279 278
295 294 293 292 291 290 289 288 288 288 287 287 288 287 287 288 288 288 287 286 286 287 286 286 286 285 284 284 284 283 282 282 282 282 282 281 281 281 281 280 280 280 280 279 279 279 279 279 279 278 278 278 277 282 284 285 285 285 283 279 277 277 277 277 276 276 276 276 276 276 275 275 275 277 277 277 277 277 280 282 282 282 282 281 281
295 294 293 293 291 291 290 290 289 289 288 287 287 288 288 288 288 287 287 286 286 286 286 285 285 284 284 284 283 283 283 282 282 282 282 281 281 281 281 281 281 281 280 280 279 279 279 278 278 278 278 277 277 282 285 285 285 285 285 281 277 278 278 277 277 276 276 276 276 276 276 275 276 275 276 276 276 276 276 277 278 280 281 281 282
294 293 292 292 293 292 291 289 288 287 286 286 286 287 286 286 286 286 286 285 285 285 285 284 284 284 283 283 283 283 283 282 282 282 282 281 281 281 281 281 281 281 280 279 279 279 279 278 278 278 277 277 276 283 285 285 285 285 286 284 278 278 278 277 277 276 276 276 277 276 276 276 276 275 275 276 276 276 276 275 275 275 276 278 279
293 293 293 293 292 291 290 290 286 286 285 286 286 286 286 285 285 285 284 284 284 284 284 283 283 283 283 283 283 283 283 282 282 281 281 281 281 281 281 281 281 280 280 280 280 279 278 278 278 277 277 276 277 282 284 285 285 286 286 284 280 278 277 277 276 277 277 277 277 276 275 275 276 275 277 279 278 276 275 273 272 273 273 274 275
292 291 292 290 289 288 288 286 284 285 285 285 285 285 285 284 283 283 283 283 283 283 283 283 283 282 282 282 282 282 282 282 282 281 281 281 281 281 281 281 280 281 280 279 279 279 279 278 277 277 276 276 277 282 284 285 285 286 286 284 283 279 277 276 276 277 277 277 276 276 275 275 275 275 277 279 280 279 274 272 272 271 271 271 272
287 284 285 285 284 285 284 284 284 283 284 284 284 284 283 283 282 282 282 282 282 282 282 282 282 282 282 282 282 282 281 281 282 281 281 281 281 282 281 281 281 280 279 279 279 278 278 278 277 277 277 277 277 280 283 284 285 286 285 283 283 281 279 278 277 278 277 277 276 277 276 275 275 275 277 279 280 280 276 274 272 271 271 270 271
283 284 285 284 283 282 282 282 283 282 282 283 283 283 283 282 281 281 281 281 281 282 282 282 282 281 281 282 283 283 283 282 282 282 282 282 281 282 282 281 281 280 279 279 278 278 277 277 277 277 279 278 277 279 282 284 284 285 285 284 283 282 280 280 279 279 279 278 276 277 277 277 276 276 278 279 280 279 277 276 275 272 271 271 272
281 281 282 282 282 282 282 282 282 281 282 282 283 283 282 281 280 281 281 281 281 282 282 282 282 281 281 281 282 283 283 282 282 282 282 282 281 280 280 280 280 280 279 278 278 278 277 277 277 277 278 278 277 277 279 283 284 284 285 284 283 281 280 280 280 280 280 279 278 276 276 279 280 280 280 280 280 280 278 277 276 274 272 272 275
282 282 282 282 281 282 282 281 281 281 282 282 282 282 280 280 280 280 280 281 281 281 281 281 281 280 280 281 282 282 282 282 282 282 282 281 281 280 280 279 279 279 279 278 278 278 278 278 277 277 277 277 277 277 278 282 283 284 284 284 282 281 281 281 280 280 280 279 279 278 276 277 280 281 281 282 282 282 281 278 277 276 275 276 277
281 281 281 281 280 280 279 279 280 281 282 282 282 281 280 280 280 280 280 280 281 281 281 280 280 280 280 280 280 281 282 282 282 282 281 280 281 280 280 279 279 279 278 278 278 277 278 278 278 277 277 277 277 278 277 280 282 283 284 284 283 282 282 280 280 279 279 279 279 279 277 277 279 280 281 282 282 283 283 282 280 282 282 281 279
281 281 280 281 280 279 279 279 279 280 281 282 281 280 279 279 280 279 280 281 281 281 280 280 279 279 280 280 280 281 281 282 282 282 281 280 280 280 280 279 279 278 278 278 277 277 277 277 276 276 275 275 274 275 278 276 279 281 282 283 283 283 283 282 280 279 279 279 279 279 278 278 280 280 281 282 282 283 283 282 283 284 284 284 283
279 280 279 279 279 279 279 278 279 279 280 281 281 279 279 279 279 280 280 280 281 281 281 280 280 280 280 280 281 281 282 282 282 282 281 280 280 280 279 279 279 278 277 277 277 276 276 275 275 275 274 273 273 272 275 277 276 279 280 281 282 283 283 281 280 279 279 279 279 278 277 279 280 281 281 282 283 282 281 283 283 283 283 282 281
279 279 279 279 279 279 279 278 278 278 279 279 280 280 279 279 279 280 281 281 281 281 281 281 280 280 280 280 280 280 281 281 281 282 281 280 279 279 278 278 278 277 277 276 276 275 275 275 274 274 274 274 272 272 271 274 277 278 279 280 281 281 282 282 280 280 280 279 280 281 281 282 282 282 283 283 282 282 283 283 282 282 281 280 280
278 278 278 278 279 278 278 277 276 276 278 277 278 281 280 279 280 281 281 281 280 280 280 280 280 280 280 280 280 280 281 281 281 282 281 280 279 278 278 276 277 276 276 276 275 274 274 273 273 273 273 273 271 271 271 270 273 276 277 279 280 280 280 281 280 280 281 282 282 282 281 280 279 279 278 277 277 278 280 281 281 281 279 279 278
278 279 278 279 279 278 277 276 275 273 274 275 275 276 278 279 280 281 282 282 281 281 280 280 280 280 279 280 280 279 279 279 279 279 279 278 278 278 277 275 276 275 275 275 274 273 273 272 272 272 272 271 270 269 269 268 268 269 270 272 273 274 276 276 276 276 276 275 275 276 275 277 276 276 276 276 276 277 276 276 277 278 278 278 278
278 278 278 278 278 277 276 275 273 273 273 273 273 273 274 276 277 279 279 280 281 280 279 278 278 278 278 278 278 274 275 276 276 276 276 275 275 276 276 275 274 274 274 273 273 272 272 272 272 272 271 269 270 269 269 269 268 267 267 268 267 268 268 269 269 270 270 271 271 272 272 271 272 272 273 273 273 274 275 275 276 276 276 276 277
278 277 278 278 277 276 275 273 272 271 271 270 270 270 270 274 276 278 279 278 277 276 276 275 276 276 276 275 276 276 276 275 274 273 273 274 275 275 275 273 272 274 275 274 273 273 272 271 272 271 270 269 268 269 270 273 270 273 269 267 266 267 268 267 270 274 272 271 271 271 271 271 271 272 273 272 273 273 273 274 275 275 275 275 275
278 277 277 276 276 275 273 272 271 270 270 270 269 269 270 271 275 278 278 276 275 275 275 274 274 274 273 274 274 274 273 273 273 272 272 272 274 277 275 273 271 274 277 278 277 272 271 270 270 270 270 270 270 270 276 277 277 278 278 277 275 275 275 272 274 277 277 274 273 272 272 272 272 272 272 273 273 273 273 273 274 275 274 274 274
277 277 276 275 274 273 271 270 269 270 270 269 269 269 270 271 274 276 277 276 275 274 273 272 272 272 272 272 272 271 271 272 272 272 272 272 273 275 279 278 277 277 278 279 278 278 277 275 272 267 269 277 276 277 278 278 279 279 279 280 280 280 280 279 279 277 275 274 273 272 272 273 273 272 272 272 273 272 272 272 272 273 272 272 272
Wind_Speed
2 5 7 8 10 9 9 8 8 8 8 9 9 10 10 9 8 10 7 8 8 7 7 8 8 6 3 5 6 4 4 4 5 3 1 2 2 4 7 8 7 5 5 5 9 7 6 7 8 6 6 7 9 9 12 8 9 12 10 6 14 12 7 6 6 8 11 8 6 7 7 6 6 6 7 6 5 4 4 5 5 6 6 6 5
5 5 5 5 7 9 8 8 8 12 12 11 11 12 11 11 12 9 8 9 8 8 8 7 8 7 6 6 4 4 4 4 5 2 3 2 1 3 5 7 10 8 6 5 6 9 9 7 7 8 8 6 5 8 9 10 11 10 11 9 2 12 9 8 8 6 4 7 9 6 6 5 4 6 7 7 5 5 4 5 4 5 6 5 4
7 9 6 8 8 9 9 9 9 11 11 13 10 11 12 11 11 10 8 9 8 8 9 8 3 2 3 5 8 6 3 2 3 3 2 2 1 1 3 7 8 7 8 6 6 7 8 9 6 8 8 9 8 7 9 9 8 11 12 13 8 3 7 1 3 3 6 4 6 8 4 3 2 4 5 6 5 4 3 5 4 5 5 4 3
14 12 11 8 9 9 9 10 10 10 11 11 12 14 10 10 10 11 9 8 8 8 6 4 5 6 7 7 6 4 4 3 4 4 3 3 2 1 2 4 7 7 7 8 5 6 9 10 7 7 8 8 8 10 9 9 8 8 8 14 14 11 6 5 1 2 6 11 5 1 3 2 4 3 3 3 3 5 5 4 3 4 4 3 2
13 10 8 9 10 13 13 9 7 9 10 12 11 12 9 12 11 11 9 10 8 8 7 7 7 7 7 7 6 8 6 4 4 4 2 3 2 3 3 2 5 8 7 8 6 8 7 6 7 8 8 9 7 9 10 11 11 9 15 11 13 13 9 4 2 2 5 5 5 6 3 3 3 4 5 3 2 3 4 3 3 3 3 3 3
13 12 10 11 12 10 10 11 11 11 12 12 10 9 11 12 12 12 9 9 10 10 9 8 7 9 9 10 9 7 7 6 10 9 7 7 6 3 3 4 4 8 6 6 6 6 8 8 8 10 10 8 8 8 9 8 9 10 12 11 10 8 12 8 5 1 2 1 2 2 0 3 7 5 3 4 2 2 2 2 2 2 1 3 3
9 8 5 9 11 11 11 12 13 13 13 9 8 9 10 11 13 13 11 9 8 11 9 8 10 11 14 13 11 12 11 7 5 6 7 4 4 5 3 4 4 6 8 5 5 6 7 7 7 7 9 8 7 8 9 10 9 10 8 8 8 8 8 9 10 7 3 2 2 2 3 1 8 10 5 6 5 3 3 1 1 0 1 2 3
8 10 10 10 11 14 16 13 10 11 9 9 9 8 12 12 13 14 10 9 8 10 13 9 12 11 10 9 9 11 11 11 10 7 5 4 6 5 4 4 5 3 7 5 5 6 7 7 7 7 9 8 8 8 10 10 7 6 7 6 7 8 8 9 9 8 10 4 1 3 4 5 4 3 8 7 6 9 6 0 1 2 1 1 2
8 9 9 11 12 12 11 11 11 10 10 11 11 11 11 11 12 12 12 11 10 11 12 11 10 11 10 8 8 6 6 6 6 5 5 5 6 4 4 4 4 4 5 5 5 7 7 8 8 7 8 9 8 7 8 11 12 12 9 8 9 8 7 7 9 10 7 7 6 2 3 3 3 3 3 3 5 6 5 7 6 3 2 2 2
6 8 7 7 8 9 9 7 9 10 9 10 10 10 11 11 12 14 13 11 11 14 12 10 9 8 8 11 11 9 7 6 4 6 5 5 6 5 4 4 4 4 5 5 5 6 6 7 7 9 10 9 7 9 10 10 10 10 10 10 9 10 4 8 9 9 6 7 7 7 5 3 3 3 2 4 3 2 7 9 7 8 6 3 2
5 6 6 6 4 6 7 10 10 9 9 10 11 11 11 12 14 16 14 10 9 12 14 13 11 10 11 11 11 11 11 11 8 6 4 5 5 6 6 4 4 4 4 4 4 5 6 5 6 7 8 8 9 9 9 10 9 9 8 8 9 10 8 7 6 7 7 8 6 7 8 9 7 6 7 4 4 4 4 4 3 2 2 4 2
5 4 4 3 2 4 6 8 9 10 10 11 10 11 12 12 12 14 12 14 13 13 12 12 11 10 8 9 10 10 13 11 12 13 10 11 8 8 5 4 4 4 3 4 5 5 5 5 5 6 7 7 8 7 8 8 7 7 6 7 7 6 7 7 8 9 8 5 5 4 4 4 2 3 5 5 5 4 6 6 6 2 1 1 1
4 5 5 5 6 7 8 8 8 10 11 12 12 11 11 11 14 16 15 13 13 12 13 12 12 11 9 9 8 8 10 11 10 12 11 11 9 7 7 7 5 4 4 6 6 7 5 6 6 6 6 6 8 7 7 8 7 6 7 8 7 8 8 10 8 8 8 7 5 2 2 2 2 2 4 5 3 4 5 7 2 1 2 4 1
5 5 6 6 7 8 8 9 10 10 11 11 11 11 11 10 12 14 14 13 13 13 13 12 12 10 10 8 8 7 7 9 9 10 10 9 8 10 11 10 8 9 8 9 8 6 5 5 6 6 5 7 7 7 8 7 7 6 7 7 8 5 5 7 7 7 4 4 4 4 2 2 3 2 4 4 5 6 5 6 5 2 0 2 1
6 7 8 9 9 9 9 9 10 10 11 11 11 11 11 11 12 14 13 13 15 14 12 14 11 9 8 8 7 8 9 7 7 8 10 10 9 10 10 9 9 8 10 9 8 7 6 6 5 6 6 6 6 7 6 6 6 6 5 6 4 4 5 5 5 6 7 5 4 3 4 3 3 2 3 3 4 4 5 6 7 6 2 2 3
7 8 9 10 8 8 8 8 9 9 11 10 12 11 12 12 12 13 14 13 14 14 13 12 10 7 8 9 9 8 7 5 5 6 8 9 11 12 12 11 10 10 10 9 8 8 8 7 6 6 5 6 6 7 7 6 6 6 5 5 6 2 5 6 5 5 5 5 5 4 4 3 2 2 2 3 2 2 3 4 4 4 5 2 2
7 9 9 8 7 8 8 9 9 9 10 12 13 12 13 12 13 13 13 11 12 13 11 10 9 9 8 7 7 7 8 9 10 11 11 10 10 9 8 8 9 10 10 10 9 8 6 7 7 6 5 5 6 6 7 6 6 6 6 6 6 4 5 6 4 5 5 5 4 4 4 4 2 3 3 3 2 3 3 2 1 4 3 2 2
7 7 6 7 8 9 9 8 10 11 12 12 13 12 11 12 13 13 12 13 12 11 11 10 11 10 10 10 7 9 9 10 9 11 10 9 8 7 5 5 8 8 10 9 9 9 8 7 7 6 5 5 6 6 6 6 6 5 6 5 5 5 6 5 4 5 5 4 4 4 3 4 3 3 3 3 3 3 3 2 2 1 2 4 3
7 7 7 7 8 9 9 10 9 9 9 10 10 10 10 10 11 13 14 13 12 10 10 8 10 8 8 10 10 10 8 8 8 8 8 9 9 9 9 8 7 7 9 10 9 8 8 7 7 7 5 6 5 6 6 6 6 6 5 6 5 5 5 5 4 4 4 4 4 5 3 4 3 3 3 3 3 3 3 3 2 2 1 3 5
7 7 7 7 8 8 9 10 10 11 10 9 9 9 11 11 11 11 10 10 10 11 11 11 10 10 9 9 9 9 10 10 9 10 9 10 9 9 8 8 8 7 9 10 10 9 9 9 6 6 7 6 6 5 6 6 6 5 5 5 5 6 6 6 5 3 3 3 4 5 4 4 3 3 3 3 3 2 3 3 3 3 2 2 3
7 7 7 7 7 7 8 7 7 6 5 6 8 10 10 9 11 11 13 12 13 12 12 12 11 11 11 12 11 10 10 9 8 9 9 9 8 8 8 8 8 8 7 8 9 8 8 8 8 7 7 7 7 7 5 6 6 6 5 6 6 6 6 5 5 5 3 3 3 4 4 3 3 4 3 3 3 3 3 2 2 3 3 3 4
7 7 6 6 6 7 6 6 5 6 7 8 8 8 9 11 10 11 11 11 13 12 12 11 11 11 12 11 11 10 10 9 10 9 9 8 7 8 8 8 9 8 10 8 9 8 7 8 8 8 7 7 6 7 7 6 7 7 6 4 6 6 6 6 5 5 4 3 3 4 4 4 3 4 4 4 3 4 4 4 3 4 4 4 4
7 7 6 6 5 5 7 8 9 10 9 9 8 10 10 10 10 10 12 12 12 11 10 10 10 10 11 10 9 9 9 10 10 8 9 9 8 8 8 9 9 10 9 9 8 8 9 8 8 8 8 7 7 7 6 6 7 7 8 6 6 6 7 8 7 6 5 4 5 4 4 4 3 4 3 3 3 4 3 4 4 3 4 4 4
6 5 4 4 5 5 5 7 8 9 9 11 10 9 9 10 10 10 12 11 10 10 9 9 9 10 10 10 10 9 9 9 10 8 10 9 8 8 8 8 8 8 9 8 8 8 8 9 9 8 7 7 7 6 7 6 7 7 7 7 7 6 5 6 6 7 7 6 5 5 4 5 4 4 3 3 3 3 4 3 4 3 4 4 4
5 7 8 5 5 7 9 8 8 8 8 8 10 11 11 11 11 11 10 10 10 9 10 10 10 11 10 10 10 10 10 10 10 8 10 9 9 7 7 9 9 9 9 8 8 7 7 7 8 8 8 7 7 7 7 7 6 5 6 6 6 5 5 6 6 6 5 6 6 5 6 5 5 5 4 4 4 5 4 4 4 3 4 3 2
4 6 9 9 8 6 7 8 8 8 9 9 10 10 11 10 11 10 10 10 10 9 10 10 10 11 10 11 11 10 11 12 11 9 10 10 10 9 9 8 10 11 8 8 8 7 7 7 7 7 7 7 7 7 6 7 7 6 5 5 4 5 5 5 5 5 5 5 5 5 6 6 6 6 6 4 4 5 4 4 5 4 4 3 4
7 9 10 3 5 10 10 9 9 8 9 9 10 11 11 11 10 10 9 10 10 11 11 12 11 12 11 12 11 11 11 10 11 10 9 8 6 9 10 11 9 9 9 9 7 7 6 6 7 7 7 8 8 6 6 7 6 7 6 6 5 5 4 4 4 4 5 5 5 5 5 6 6 6 6 6 6 5 5 6 6 5 4 4 5
6 10 9 7 8 7 9 9 8 9 8 9 9 10 10 11 11 9 9 9 9 11 11 12 12 12 12 11 10 10 10 10 9 9 9 9 9 7 7 7 7 8 9 8 8 8 7 7 6 7 7 7 8 7 7 7 6 6 6 5 5 5 5 4 5 5 5 5 5 5 5 6 6 6 6 5 6 6 5 6 4 4 5 6 6
9 11 7 7 9 10 9 9 10 9 11 12 10 10 9 9 8 9 9 10 10 11 12 12 12 12 11 10 9 8 8 9 9 9 9 9 9 9 9 8 8 7 7 9 8 8 8 8 8 8 9 8 8 8 7 8 8 6 6 6 6 5 5 5 5 4 4 4 4 4 5 5 6 7 9 7 8 7 5 5 4 6 6 6 4
8 9 9 9 11 8 7 8 9 12 13 12 11 11 11 11 11 10 10 9 10 11 12 11 12 11 10 10 9 9 9 9 10 10 10 10 10 9 9 10 10 9 9 9 9 8 9 10 10 9 8 7 7 6 8 11 9 8 6 5 4 5 5 5 5 5 4 5 5 4 4 7 9 10 11 12 13 13 12 8 5 7 6 6 5
9 9 10 9 8 7 7 9 12 13 14 13 12 11 10 10 10 10 11 10 10 11 11 12 12 10 10 10 10 10 10 11 11 10 10 11 11 9 10 10 10 10 11 10 10 10 10 9 10 11 10 9 7 7 13 15 14 13 9 8 8 6 5 5 5 6 7 6 5 5 5 6 8 9 10 14 15 15 15 15 13 12 11 11 9
12 12 9 8 9 9 10 13 14 13 12 11 11 10 10 13 11 12 10 9 11 11 12 11 10 10 10 12 11 11 11 11 11 10 10 10 10 10 10 11 10 11 10 10 11 12 12 11 10 10 10 9 8 11 18 17 16 16 12 8 6 5 5 5 6 7 7 6 6 5 5 5 6 8 7 8 12 16 16 16 16 16 17 18 16
14 13 11 11 10 10 11 12 11 11 11 12 10 10 13 12 12 11 9 11 12 12 11 11 10 10 11 11 11 12 12 10 10 10 10 10 10 10 10 10 11 10 8 10 11 11 10 9 10 11 10 9 9 15 18 18 17 17 16 10 5 5 5 5 6 8 7 7 7 7 7 6 7 12 9 8 7 8 13 16 17 17 18 19 19
12 10 10 9 7 8 10 11 10 8 9 8 10 12 11 9 9 9 12 11 11 10 10 10 10 10 10 10 11 10 10 9 8 8 9 9 9 10 8 6 5 5 6 6 6 8 7 9 9 9 9 8 8 13 17 17 17 16 15 11 5 5 4 6 8 8 7 8 8 9 9 10 8 7 7 8 8 7 7 7 8 9 10 14 19
12 9 9 10 11 9 7 6 7 6 6 8 9 9 6 8 9 10 9 10 9 9 9 9 10 9 10 8 10 10 9 8 7 7 7 8 8 7 7 6 6 7 7 7 7 7 5 5 5 5 7 7 6 13 15 15 14 14 14 11 5 4 4 6 7 7 8 9 7 8 10 12 10 9 7 8 8 8 6 6 7 9 9 9 10
10 11 12 10 9 9 8 8 4 6 7 8 9 8 9 8 8 9 9 9 9 9 9 8 9 9 10 10 10 8 8 8 8 8 8 8 7 8 8 6 6 5 4 4 3 4 5 6 5 5 4 5 4 12 13 15 15 15 15 7 6 6 8 7 6 7 7 6 7 9 10 11 10 9 9 13 12 6 6 9 10 10 8 8 9
8 8 9 6 5 5 6 4 4 6 7 7 7 8 8 9 9 8 9 9 9 9 9 9 9 9 9 9 10 10 9 9 9 10 9 9 10 9 8 7 8 7 7 6 5 4 3 4 5 5 6 5 4 9 13 13 14 15 11 6 7 7 6 6 8 9 8 7 9 10 9 7 8 8 9 12 13 11 7 10 10 11 10 8 9
5 3 4 4 3 1 1 5 5 5 5 7 8 9 9 9 9 8 9 9 9 10 9 9 9 7 9 9 10 9 10 10 10 12 11 8 6 6 7 7 8 8 8 7 6 6 5 6 6 5 5 5 4 6 11 12 14 16 12 8 6 5 7 7 8 9 8 9 10 9 8 7 7 8 9 12 13 12 9 10 9 11 12 12 13
3 4 4 2 1 4 5 6 7 7 5 7 9 10 9 9 8 9 8 9 8 8 9 9 8 9 8 8 8 8 8 9 8 6 7 8 8 7 6 6 5 5 6 5 6 6 5 4 5 6 6 6 5 6 11 13 15 14 9 5 5 6 7 8 8 10 10 8 7 8 13 11 10 11 13 12 15 13 10 10 10 9 12 14 12
1 1 2 4 6 7 6 7 7 7 7 8 9 9 8 9 8 8 9 9 9 9 8 7 7 7 7 7 7 8 8 8 8 8 8 8 7 7 7 7 6 6 6 6 6 6 7 6 6 7 8 9 9 7 7 11 10 11 12 7 6 7 9 10 10 10 10 8 8 8 9 14 17 17 16 17 16 18 11 10 6 8 11 17 9
2 3 3 5 4 5 6 6 7 8 8 8 9 9 9 8 9 8 8 8 7 7 8 8 8 8 7 8 7 8 9 7 8 8 8 7 7 8 8 8 8 6 7 6 7 6 5 5 4 4 4 3 3 4 5 11 12 13 15 14 8 9 9 9 9 9 9 10 9 7 4 9 14 16 16 18 19 20 19 12 12 13 14 14 9
3 4 5 6 6 7 8 7 5 8 8 8 9 10 9 9 8 8 6 6 8 8 9 8 8 8 8 8 8 7 8 8 8 9 9 7 6 7 8 8 6 7 8 7 6 6 5 5 5 5 5 6 5 8 6 12 16 16 16 18 10 9 8 7 9 10 10 9 9 7 5 7 12 16 17 19 21 21 23 15 14 20 23 22 16
5 5 3 7 8 7 7 6 5 5 6 6 9 9 8 7 8 7 7 8 8 9 8 9 9 9 8 8 8 9 8 8 8 9 10 9 7 7 7 7 8 7 7 7 7 6 5 5 4 4 4 4 4 5 9 6 9 11 12 13 14 10 11 8 9 12 11 8 6 7 6 9 14 16 18 19 20 22 20 17 23 25 25 27 22
4 4 6 8 9 8 8 6 4 5 4 6 9 9 8 7 7 6 6 7 8 8 8 9 8 8 8 8 8 8 8 8 9 8 8 9 8 7 7 7 7 7 6 6 5 5 5 5 5 4 3 3 3 4 5 8 7 12 13 15 16 17 16 10 8 10 9 8 8 6 5 9 13 16 18 20 21 21 17 22 23 24 24 22 13
7 6 5 6 11 11 9 7 5 5 5 5 6 10 8 8 6 7 8 9 8 8 9 8 8 8 8 7 7 7 7 7 7 8 8 7 8 7 7 5 6 5 5 6 5 5 6 5 4 5 3 3 3 4 4 7 11 12 14 15 16 17 17 18 12 10 9 7 8 11 13 16 18 19 20 20 18 19 22 22 23 23 21 10 9
6 6 7 8 9 9 10 10 6 4 5 4 4 8 10 8 7 7 8 9 10 10 9 9 8 8 8 8 8 6 6 6 7 5 6 6 8 7 6 6 6 5 5 6 5 5 5 5 5 4 4 3 4 3 3 3 5 6 8 12 14 14 14 16 15 12 15 18 19 18 17 14 12 11 9 7 8 9 16 20 21 20 11 9 8
8 8 9 9 10 10 9 8 8 3 5 5 5 4 5 5 6 7 8 9 9 10 9 8 8 8 7 8 9 7 6 6 5 5 5 6 6 6 6 6 6 6 5 5 6 6 5 5 5 4 4 3 3 3 3 3 2 2 3 3 3 4 7 8 7 7 6 6 7 7 6 10 9 12 12 11 11 11 10 9 7 7 8 7 8
5 6 6 8 9 10 10 9 8 5 5 6 6 6 5 5 5 7 7 8 9 9 9 8 8 7 7 7 7 9 9 6 6 6 6 5 5 6 7 7 8 7 7 6 6 6 6 6 5 4 4 3 3 2 2 3 3 3 3 2 2 2 3 3 3 5 5 5 3 5 6 4 3 4 4 3 3 4 6 7 7 6 6 6 8
8 5 6 8 9 10 9 10 8 4 6 7 6 5 5 5 5 6 8 10 9 9 9 8 7 7 7 6 7 7 7 7 6 5 4 3 6 6 6 3 1 2 6 7 6 5 4 4 5 5 5 3 2 3 4 5 5 6 5 3 3 4 4 4 7 10 6 4 1 2 3 3 4 7 7 6 6 5 5 5 6 5 5 5 5
6 7 7 8 7 10 11 10 7 5 6 7 7 5 4 4 4 6 8 11 10 9 9 7 6 7 7 7 6 6 6 7 7 7 7 6 5 6 4 5 3 3 5 5 6 4 5 5 5 3 3 4 4 3 5 5 6 7 9 11 11 10 9 8 9 13 9 6 5 6 6 6 6 6 6 6 6 6 6 5 4 5 4 5 5
10 11 10 9 8 8 11 10 7 6 7 7 7 5 5 4 4 4 8 10 10 9 7 7 7 6 7 7 7 7 6 6 6 7 7 8 7 6 9 8 7 6 5 5 7 7 9 8 6 2 2 6 6 5 4 4 4 4 5 6 7 10 11 13 15 10 7 6 4 5 6 6 6 5 5 6 5 5 4 5 5 5 3 4 5
Wind_Direction
242 207 199 192 188 187 183 177 182 186 191 184 178 187 189 186 172 185 173 163 169 165 171 167 158 137 133 162 140 119 120 112 101 83 179 72 80 147 142 128 120 120 127 144 131 134 134 132 138 139 145 148 151 151 144 130 137 136 130 123 123 118 112 120 139 129 115 89 83 79 72 64 70 68 69 65 62 61 58 67 61 67 62 60 55
254 250 214 191 188 180 177 181 176 184 199 186 188 189 188 185 190 183 171 174 181 179 175 179 172 173 164 164 128 123 133 152 130 158 109 76 130 182 155 133 132 131 129 120 127 131 143 147 152 143 150 146 134 129 129 133 134 130 130 107 69 132 138 167 167 130 101 141 136 115 81 80 80 71 68 56 54 52 54 66 66 73 71 71 72
244 238 205 200 186 183 184 191 199 200 184 191 186 182 187 189 193 184 178 177 181 176 180 181 148 104 146 146 137 105 29 9 65 91 86 83 94 224 163 131 128 130 134 139 142 140 148 148 158 140 143 136 130 130 136 136 149 148 153 136 131 52 118 192 193 293 134 129 108 107 142 122 123 95 88 66 56 53 55 68 68 76 72 74 81
248 234 218 190 189 189 195 199 199 192 190 191 189 188 186 189 190 187 180 179 177 178 166 97 93 92 79 90 82 88 140 103 80 81 83 84 117 257 58 106 126 130 136 142 155 151 156 156 156 146 141 159 147 141 147 143 150 151 148 147 135 139 158 177 261 244 172 146 147 131 152 150 142 176 121 96 76 58 51 62 63 75 86 90 90
247 242 215 187 194 202 200 199 183 197 198 194 188 188 186 189 187 185 178 183 176 156 137 127 115 100 90 85 90 95 85 102 107 89 77 135 195 133 103 99 127 120 133 143 160 161 158 149 163 148 146 154 162 141 156 162 163 162 156 152 162 148 156 142 176 214 204 333 140 131 112 208 216 131 140 106 121 98 49 47 62 68 89 87 84
240 241 215 201 203 201 200 193 196 203 203 199 189 184 182 184 182 182 177 182 178 160 145 151 148 136 141 152 159 158 155 163 176 169 172 181 182 122 120 134 123 113 117 124 145 157 152 154 162 153 147 146 167 156 144 142 160 163 171 161 159 175 147 145 135 35 16 47 344 0 173 171 151 165 159 158 104 75 86 62 35 53 87 91 87
242 249 217 198 209 201 202 200 201 202 206 182 179 182 179 179 184 183 184 179 168 165 156 159 160 166 175 180 174 171 173 192 176 160 174 152 120 146 167 124 105 112 116 124 136 154 138 148 161 171 149 148 151 148 156 165 166 167 161 170 162 142 154 147 159 157 137 66 39 71 92 26 142 143 183 109 155 161 154 153 119 25 90 106 119
231 229 224 216 203 201 205 204 199 205 182 175 180 177 182 181 182 185 179 173 164 170 174 172 175 179 179 189 183 170 179 180 180 163 119 140 139 156 168 114 110 151 113 125 148 143 138 137 157 162 152 149 155 165 159 154 146 139 165 150 143 162 170 154 155 168 171 150 122 106 83 80 69 35 141 160 147 157 169 151 270 247 181 134 147
223 228 223 213 209 210 209 200 200 186 181 182 182 180 178 177 180 180 183 176 173 170 179 185 184 180 178 171 182 173 147 149 145 119 134 152 143 151 132 121 119 127 101 126 160 140 158 156 156 163 151 150 165 149 152 154 161 157 158 156 167 171 176 161 148 174 170 158 142 87 95 85 76 52 108 112 149 151 162 175 166 187 194 143 119
251 244 238 226 220 214 206 189 178 190 185 181 177 174 176 176 180 183 185 180 176 183 186 185 188 179 178 186 177 162 112 110 124 137 147 161 151 137 125 140 134 140 117 126 150 143 145 151 173 167 153 151 156 153 148 153 159 166 162 157 157 157 159 171 169 157 157 147 164 144 141 133 101 121 119 116 48 98 166 181 175 170 171 153 125
275 265 261 255 242 201 175 187 185 181 184 180 179 180 177 178 183 187 185 173 169 181 187 191 190 190 191 189 178 164 161 156 149 146 139 156 161 145 152 150 144 146 132 142 145 135 136 159 177 168 144 151 149 158 170 162 164 158 150 146 159 160 161 156 125 136 138 152 162 172 161 172 166 173 173 180 145 144 112 141 146 195 141 159 162
278 267 261 238 138 169 177 188 180 182 181 184 184 182 182 181 181 185 182 183 182 183 187 190 188 189 190 183 175 172 166 167 172 174 172 175 171 156 145 130 150 143 140 139 146 140 160 161 175 158 152 157 162 163 155 156 145 138 143 153 148 152 130 135 136 145 158 146 162 178 175 139 113 149 156 148 153 155 153 150 153 122 353 263 356
266 250 226 210 200 190 193 190 177 186 191 186 184 184 184 185 187 191 192 183 184 181 188 188 191 191 187 182 180 171 175 176 175 175 178 178 173 153 153 154 150 163 172 157 160 170 164 164 169 167 158 168 145 150 147 138 142 143 143 142 155 162 162 151 156 160 155 158 159 144 151 162 100 54 118 124 64 98 129 130 86 92 176 181 181
241 232 229 222 210 204 196 189 189 188 190 187 185 186 186 187 189 195 194 188 186 185 187 187 193 190 186 180 171 162 169 180 178 175 176 177 173 176 176 166 163 179 166 183 160 164 174 183 165 152 143 136 150 146 141 137 135 142 145 148 155 138 130 133 121 121 116 84 116 133 117 92 86 99 115 117 129 129 142 146 135 132 291 158 148
231 226 221 220 216 202 196 193 191 190 188 188 186 189 186 189 192 194 190 186 187 190 186 193 191 189 186 180 168 172 180 176 176 176 175 169 174 186 189 173 168 169 173 153 152 168 160 166 159 141 144 148 146 141 128 126 123 127 134 124 110 116 108 108 111 120 110 113 94 101 111 93 104 100 115 114 130 141 136 152 148 145 155 185 207
216 229 234 232 221 206 200 199 196 191 191 190 190 188 190 194 194 197 195 186 187 186 191 189 189 180 180 180 180 177 179 171 160 169 181 181 181 187 187 183 175 160 143 148 159 160 159 157 144 140 141 148 146 132 130 130 137 130 120 119 106 79 108 102 110 98 97 99 100 117 106 98 94 111 108 119 119 128 127 136 146 150 158 188 174
223 227 229 227 217 214 208 200 194 192 191 195 194 191 192 188 192 196 196 186 189 191 187 185 181 178 181 178 172 173 176 179 181 181 184 184 187 190 190 189 166 156 150 149 153 155 151 154 146 143 151 145 132 125 123 121 121 119 117 115 106 104 95 95 91 100 107 116 122 136 126 123 117 116 105 102 112 118 115 122 130 159 154 167 191
239 238 236 223 214 211 209 208 204 197 195 194 195 193 191 191 191 194 194 189 189 187 186 182 180 183 181 183 177 183 184 188 186 185 182 180 184 179 160 165 178 165 159 150 150 148 146 157 147 145 145 139 128 122 116 114 108 102 102 92 95 104 99 92 95 117 126 126 119 118 132 118 123 116 112 115 113 114 123 122 118 106 147 174 188
250 240 228 220 214 212 206 207 207 207 203 200 195 190 191 192 192 193 195 192 187 186 184 181 180 181 182 185 183 185 188 190 190 182 178 181 181 179 178 179 146 136 134 139 145 149 150 151 146 140 139 130 120 118 116 111 109 112 111 110 113 119 117 117 122 124 127 130 135 129 133 117 123 117 116 111 105 117 122 122 113 112 103 128 155
239 239 229 222 220 214 209 204 203 203 200 199 195 192 194 192 188 192 188 180 179 183 179 181 181 181 183 183 187 186 186 188 185 178 181 186 183 178 169 157 161 141 142 137 147 153 155 154 146 142 136 133 128 121 122 116 117 115 123 121 130 128 123 126 127 118 123 143 138 133 142 136 140 127 120 119 122 114 123 137 140 129 116 132 147
240 233 229 223 218 215 215 216 212 210 211 200 199 197 195 190 193 189 186 183 184 185 182 185 177 185 178 184 183 182 185 186 182 186 185 184 177 174 179 172 136 158 142 152 150 151 154 151 144 147 148 145 140 134 132 130 122 121 119 121 129 133 129 123 120 122 127 150 149 133 139 137 143 136 134 136 133 134 136 135 140 139 149 163 170
239 235 227 224 215 208 213 211 210 201 202 203 203 199 197 197 194 190 190 190 185 187 188 182 182 181 183 183 184 184 183 177 181 178 180 174 174 176 171 152 172 158 150 157 155 149 153 153 150 147 148 143 139 136 136 133 130 127 126 134 139 139 135 129 133 136 146 157 164 146 149 147 157 137 142 149 151 152 162 151 165 174 178 179 198
231 227 221 218 206 205 201 203 205 206 203 198 200 201 201 199 193 194 193 196 189 187 184 181 181 180 184 183 179 181 176 179 177 178 179 171 169 171 165 173 171 148 143 155 157 155 158 153 148 147 145 146 145 140 140 134 135 138 140 150 154 152 148 147 152 158 163 157 167 164 158 154 150 150 159 158 154 169 163 170 177 189 191 189 191
258 265 252 205 185 189 202 210 212 212 206 204 202 200 200 200 198 193 199 189 185 181 179 178 180 184 181 177 180 174 177 179 181 181 182 175 170 174 168 175 166 134 153 150 152 159 155 158 149 151 150 141 142 140 138 139 141 148 151 155 159 158 150 151 155 159 165 173 171 157 170 164 161 162 169 172 180 170 175 181 189 198 200 192 190
273 246 217 180 171 196 210 211 215 218 215 208 206 202 201 203 196 197 197 185 181 177 177 181 180 181 181 183 181 174 178 181 184 182 184 174 177 167 166 171 146 150 146 148 152 157 159 157 159 155 150 148 147 143 141 141 143 146 150 149 154 155 153 157 164 166 169 172 172 181 163 166 164 172 183 196 183 186 185 189 201 193 201 193 181
269 262 239 182 202 218 216 209 211 214 212 211 213 208 206 206 204 195 190 180 181 173 179 177 181 182 184 187 182 177 183 182 180 182 185 181 176 169 159 156 157 145 149 157 154 161 166 161 151 151 142 138 142 149 146 142 139 137 137 136 145 155 154 154 155 166 176 185 178 174 168 170 175 187 199 190 186 195 184 204 204 203 195 188 201
242 240 249 134 202 220 222 217 211 213 211 214 213 211 208 206 204 197 191 182 177 175 178 180 182 187 187 189 183 183 182 182 182 179 173 172 173 174 170 168 161 155 156 159 159 158 164 159 147 142 147 148 150 143 140 141 135 133 137 148 153 152 150 150 162 169 181 187 186 174 168 181 191 201 198 194 188 196 198 210 205 199 194 195 211
240 244 228 205 226 228 223 219 211 214 212 219 217 215 210 205 203 194 188 183 178 177 181 183 184 190 191 188 185 181 180 180 179 174 173 173 168 166 169 159 151 161 164 166 162 164 157 154 147 144 143 148 148 152 153 147 147 142 143 150 157 157 156 161 171 184 189 193 185 181 181 192 202 205 205 199 188 199 193 211 202 190 197 205 214
231 239 241 227 230 228 220 210 213 208 215 216 214 214 210 210 204 193 188 191 176 179 186 187 187 192 190 180 177 176 174 171 171 170 167 166 168 168 164 160 169 169 173 172 164 162 153 153 154 155 149 153 158 162 162 161 152 142 152 153 159 160 163 170 173 180 188 197 199 193 195 199 210 220 221 215 208 200 182 197 195 184 200 205 217
252 251 241 232 234 234 217 206 211 213 216 213 211 210 205 201 200 191 189 187 170 188 186 188 193 191 177 172 172 169 170 168 170 171 168 165 166 166 166 167 173 175 170 166 164 159 163 166 159 155 154 155 161 161 161 156 156 152 149 142 145 163 168 176 174 175 200 211 213 202 205 211 217 222 225 226 222 216 212 204 187 180 188 196 204
255 253 248 241 239 232 217 214 220 215 215 211 210 207 200 203 199 191 191 182 178 184 188 189 193 184 172 166 168 171 167 174 176 170 167 166 166 168 170 172 173 172 170 168 166 167 172 169 165 162 163 167 166 160 160 165 165 163 159 167 173 172 166 175 188 188 201 205 209 209 208 217 223 230 229 230 231 225 222 218 213 203 197 187 182
251 250 248 246 236 225 218 223 225 221 212 208 206 197 194 205 192 193 186 170 182 185 187 190 184 175 172 171 171 169 173 177 171 173 170 171 169 171 174 176 176 177 177 170 174 179 176 172 171 169 169 168 165 165 170 172 173 170 169 168 172 173 176 189 190 201 210 205 201 199 211 198 221 223 222 229 233 234 230 226 225 220 213 213 207
247 248 247 243 238 228 225 230 230 220 210 209 191 188 203 196 189 188 165 177 185 186 184 183 180 174 175 173 171 172 175 173 177 173 172 168 170 175 178 178 185 185 173 177 181 175 180 175 170 169 171 169 169 172 175 174 174 176 175 169 170 173 179 199 199 208 212 214 204 196 201 213 218 228 228 226 225 233 235 235 234 234 230 223 222
250 246 247 253 247 240 230 229 230 222 209 193 187 198 201 187 180 167 177 181 179 182 180 180 173 176 171 172 171 170 173 175 173 170 166 169 170 179 181 179 166 159 172 178 179 179 172 175 176 175 171 166 167 175 175 175 175 177 178 169 170 178 194 204 208 211 214 220 215 200 199 222 210 207 217 218 222 222 223 231 238 238 236 233 231
244 249 249 240 242 248 251 245 232 204 182 171 192 192 164 162 166 169 173 170 178 172 177 172 171 170 166 167 167 170 171 164 159 158 162 166 170 165 162 165 166 173 173 178 176 175 170 163 163 158 157 165 172 178 176 172 169 175 182 174 164 183 202 218 216 214 221 226 221 206 215 226 233 209 206 212 218 221 216 228 234 241 242 241 236
227 228 238 237 240 240 241 243 203 178 178 180 182 165 159 162 153 161 162 166 167 171 172 164 167 166 165 163 161 163 157 152 152 153 158 165 164 166 161 151 143 137 127 124 124 145 160 164 158 151 143 146 155 176 172 169 173 180 182 178 174 198 213 219 221 221 221 224 216 216 213 231 237 229 219 218 220 208 217 232 238 245 246 244 242
235 217 238 232 229 218 225 192 162 172 163 170 152 149 145 141 150 154 155 159 163 170 171 169 168 163 162 160 158 156 157 157 158 158 164 166 164 162 155 146 147 150 150 150 148 141 124 138 144 153 154 154 153 178 177 176 177 184 183 190 197 204 213 219 231 233 233 230 222 218 221 228 240 235 231 226 226 213 216 229 239 248 250 251 250
231 237 248 247 255 205 128 148 142 141 149 140 143 143 140 144 147 148 153 159 166 175 170 166 165 161 158 158 159 157 158 161 165 172 171 162 147 131 147 153 154 155 157 161 155 146 147 148 148 149 157 153 153 179 182 189 192 192 190 196 200 201 221 226 241 243 238 239 234 222 220 223 229 239 231 230 227 221 225 230 233 246 256 258 259
229 225 234 231 142 131 119 108 119 125 134 136 136 135 134 139 144 150 153 160 171 166 163 166 164 160 157 156 157 156 156 157 159 149 138 139 148 151 140 135 133 133 137 132 140 142 137 140 148 152 141 147 162 184 196 203 206 206 200 201 207 220 230 235 239 249 243 235 240 226 226 226 230 240 238 233 231 223 230 235 232 239 253 257 255
359 2 211 151 136 114 106 120 131 136 132 130 128 128 131 138 146 148 157 169 173 168 159 147 141 142 143 144 145 146 148 149 147 140 145 146 135 130 142 140 138 139 138 141 140 144 152 160 161 163 176 179 187 195 198 208 209 211 211 209 219 222 235 237 239 246 255 246 235 234 229 233 239 243 242 240 236 230 228 235 225 227 246 255 259
73 97 109 97 82 102 120 127 129 130 130 129 128 127 135 143 147 152 169 170 155 139 138 138 136 136 141 143 143 147 145 144 143 141 136 132 141 143 143 148 146 142 142 149 156 157 157 157 161 169 172 184 169 171 189 204 211 214 217 217 222 227 235 243 248 253 250 256 255 240 231 226 238 245 247 246 242 239 236 235 236 239 238 250 264
68 84 96 97 91 92 93 91 112 128 132 136 134 135 138 142 147 163 165 143 138 140 137 136 140 140 140 141 141 137 137 137 136 136 137 140 137 138 143 140 138 141 151 155 160 164 169 178 178 185 192 198 192 187 191 208 213 218 220 222 226 233 232 244 257 257 256 259 261 262 256 217 230 238 240 242 244 244 244 241 240 243 250 253 254
106 87 75 109 104 97 98 109 116 123 129 133 127 127 133 140 153 164 148 144 141 139 138 137 137 139 142 142 142 141 138 138 140 141 139 135 137 136 138 142 146 154 161 166 170 171 173 184 183 189 191 190 179 190 198 202 220 223 228 234 239 244 243 238 247 258 258 265 268 263 246 231 237 241 244 245 247 250 254 254 256 260 263 266 266
72 103 123 112 107 107 104 99 102 111 120 127 129 130 139 144 152 149 137 135 136 136 133 132 135 135 135 136 138 136 134 137 139 137 136 138 146 148 149 156 155 156 160 168 171 162 170 181 193 193 180 175 175 171 205 203 208 225 233 237 241 245 246 245 246 258 266 266 271 269 256 249 248 252 256 261 265 266 264 265 268 270 273 275 274
128 126 128 122 122 121 113 98 93 101 110 125 134 134 139 140 158 143 142 138 134 130 127 129 130 133 133 133 130 132 136 137 141 142 141 143 144 146 150 152 150 154 163 168 167 165 179 186 181 199 185 167 173 177 196 211 213 218 228 235 241 245 247 250 254 261 267 271 277 277 275 275 274 276 279 280 279 277 276 277 278 279 280 279 272
118 117 120 120 111 106 108 107 83 74 91 105 139 143 145 156 149 142 138 134 131 129 127 129 129 128 129 129 124 119 122 128 135 140 143 147 150 153 149 151 152 162 165 168 166 168 176 176 191 188 185 173 167 170 189 207 219 228 232 239 245 250 256 259 263 270 273 278 282 290 300 313 321 324 324 318 315 306 298 292 287 283 275 268 265
135 141 131 123 120 114 114 111 102 59 77 73 77 68 103 120 127 127 126 127 125 123 122 122 125 123 126 130 130 137 131 131 131 122 125 133 140 144 143 153 163 163 167 168 167 169 168 173 189 191 175 168 176 179 188 202 210 215 240 260 278 291 294 298 293 297 311 312 310 306 300 299 303 302 297 292 290 292 291 288 286 279 269 262 262
124 130 128 116 118 123 121 113 104 88 85 86 83 76 77 99 111 119 119 116 116 124 126 127 127 129 131 132 130 129 129 128 132 134 133 131 139 151 153 165 172 170 167 176 173 176 179 185 187 168 160 159 190 188 209 209 206 193 213 208 216 242 250 242 272 278 264 271 280 300 307 305 285 287 287 287 283 276 275 282 282 278 271 265 267
126 127 122 129 129 119 115 110 104 96 93 90 82 68 53 80 106 116 119 114 114 111 112 116 120 120 123 126 132 137 138 133 126 102 78 112 153 162 157 149 96 157 168 165 179 179 180 174 163 161 163 179 167 202 232 198 198 193 185 180 218 223 219 219 226 240 252 259 236 283 289 292 291 291 296 294 292 284 271 270 276 277 276 272 267
111 107 108 102 103 115 118 110 103 101 97 92 82 67 52 46 83 115 117 119 121 118 117 120 123 124 128 131 130 131 131 132 130 125 116 79 71 108 121 139 162 171 157 141 140 165 177 155 152 189 170 156 181 207 209 201 209 215 216 204 208 212 213 215 231 244 248 257 259 266 266 270 274 269 274 280 286 291 298 299 299 299 295 289 276
134 123 117 116 113 115 111 107 110 110 99 97 88 75 66 47 66 112 124 127 128 121 119 123 128 136 143 137 134 132 135 129 132 130 123 115 98 78 88 104 118 125 141 144 133 133 141 145 142 153 221 186 200 214 203 211 227 243 249 258 252 243 241 239 238 242 250 248 245 245 258 260 265 269 275 289 307 314 318 321 317 319 307 291 291